Location: Newark
(51.0967°N, 24.7917°E)
Time: 11:26:15
(UTC+00:00)

STARLINK-1285 - Pass Details

Date: 02 April 2020
Orbit: 379 x 380 km, 53.0° (Epoch: 06 June)

Event Time Altitude Azimuth Distance (km) Brightness Sun altitude
Exits shadow 02:32:39 25° 260° (W) 831 4.0 -13.0°
Maximum altitude 02:34:21 80° 344° (NNW) 395 2.9 -12.7°
Drops below altitude 10° 02:37:29 10° 73° (ENE) 1,405 7.2 -12.3°
Sets 02:39:32 0° 74° (ENE) 2,258 8.8 -12.0°
